Location: Penum?ka
(16.4840°N, 80.5772°E)
Time: 15:10:35
(UTC+00:00)

Hubble Space Telescope - Pass Details

Date: 19 May 2025
Orbit: 488 x 491 km, 28.5° (Epoch: 18 June)

Event Time Altitude Azimuth Distance (km) Brightness Sun altitude
Rises 23:38:34 0° 294° (WNW) 2,543 3.8 -6.9°
Reaches altitude 10° 23:41:38 10° 320° (NW) 1,661 3.1 -6.2°
Maximum altitude 23:43:45 14° 354° (N) 1,415 3.1 -5.7°
Drops below altitude 10° 23:45:53 10° 28° (NNE) 1,660 4.1 -5.3°
Sets 23:48:57 0° 54° (NE) 2,539 6.2 -4.6°
